Tracking 35334 objects as of 13-Sep-2026
HD Live streaming from Space Station
objects crossing your sky now

PSLV DEB

Track PSLV DEB now!
10-day predictions


NORAD ID: 35346
Int'l Code: 2001-049QE
Launch date: October 22, 2001
Source: India (IND)
Launch site: SRIHARIKOTA (SRI)

Note: This is SATELLITE DEBRIS
Your satellite tracking list
Your tracking list is empty




NASA's NSSDC Master Catalog

Two Line Element Set (TLE):
1 35346U 01049QE  26247.91736347  .00010479  00000-0  72752-3 0  9993
2 35346  98.8403 128.4147 0016749 146.0931 214.1366 15.05686349271845
Source of the keplerian elements: AFSPC